HELLAS-SAT 2

Last updated on Sun Apr 12 2026 00:02:51 GMT+0000 (Coordinated Universal Time)

1 27811U 03020A 26101.23341583 -.00000077 00000+0 00000+0 0 9996 2 27811 7.1885 68.6705 0005296 277.2781 287.5430 1.00272400 42177
UTC large
Height (km)
Speed (km/s)
/
Latitude / Longitude
Inclination (degrees)
Orbital Period (minutes)
Azimuth
Elevation
Range (km)
Doppler Factor

Next 0 passes for location: London (51.5072 / 0.1276)

Sorry there are no passes over London.
HELLAS-SAT 2